SCP
0 0 0 0 0 0 0 0 0 0 0 0 0 0 0 0 0 0 0 0 0 0 0 0 0 0 0 0 0 0 0 0 0 0 0 0 0 0 0 0 0 0 0 0
0 0 0 0 0 0 0 0 0 0 0 0 0 0 0 0 0 0 0 0 0 0 0 0 0 0 0 0 0 0 0 0 0 0 0 0 0 0 0 0 0 0 0 0
0 0 0 0 0 0 0 0 0 0 0 0 0 0 0 0 0 0 0 0 0 0 0 0 0 0 0 0 0 0 0 0 0 0 0 0 0 0 0 0 0 0 0 0
0 0 0 0 0 0 0 0 0 0 0 0 0 0 0 0 0 0 0 0 0 0 0 0 0 0 0 0 0 0 0 0 0 0 0 0 0 0 0 0 0 0 0 0
0 0 0 0 0 0 0 0 0 0 0 0 0 0 0 0 0 0 0 0 0 0 0 0 0 0 0 0 0 0 0 0 0 0 0 0 0 0 0 0 0 0 0 0
0 0 0 0 0 0 0 0 0 0 0 0 0 0 0 0 0 0 0 0 0 0 0 0 0 0 0 0 0 0 0 0 0 0 0 0 0 0 0 0 0 0 0 0
0 0 0 0 0 0 0 0 0 0 0 0 0 0 0 0 0 0 0 0 0 0 0 0 -0 0 0 0 0 0 0 0 0 0 0 0 0 0 0 0 0 0 0 0
0 0 0 0 0 0 0 0 0 0 0 0 0 0 0 0 0 0 0 0 0 0 0 0 0 0 0 0 0 0 0 0 0 0 0 0 0 0 0 0 0 0 0 0
0 0 0 0 0 0 0 0 0 0 0 0 0 0 0 0 0 0 0 0 0 0 0 0 0 0 0 0 0 0 0 0 0 0 0 0 0 0 0 0 0 0 0 0
0 0 0 0 0 0 0 0 0 0 0 0 0 0 0 0 0 0 0 0 0 0 0 0 0 0 0 0 0 0 0 0 0 0 0 0 0 0 0 0 0 0 0 0
0 0 0 0 0 0 0 0 0 0 0 0 0 0 0 0 0 0 -0 0 0 0 0 0 0 0 0 0 0 0 0 0 0 0 0 0 0 0 0 0 0 0 0 0
0 0 0 0 0 0 0 0 0 0 0 0 0 0 0 0 0 0 0 0 0 0 0 0 0 0 0 0 0 0 0 0 0 0 0 0 0 0 0 0 0 0 0 0
0 0 0 0 0 0 0 0 0 0 0 0 0 0 0 0 0 0 0 0 0 0 0 0 0 0 0 0 0 0 0 0 0 0 0 0 0 0 0 0 0 0 0 0
0 0 0 0 0 0 0 0 0 0 0 0 0 0 0 0 0 0 0 0 0 0 0 0 0 0 0 0 0 0 0 0 0 0 0 0 0 0 0 0 0 0 0 0
0 0 0 0 0 0 0 0 0 0 0 0 0 0 0 0 0 0 0 0 0 0 0 0 0 0 0 0 0 0 0 0 0 0 0 0 0 0 0 0 0 0 0 0
0 0 0 0 0 0 0 0 0 0 0 0 0 0 0 0 0 0 0 0 0 0 0 0 0 0 0 0 0 0 0 0 0 0 0 0 0 0 0 0 0 0 0 -0
0 0 0 0 0 0 0 0 0 0 0 0 0 0 0 0 0 0 0 0 0 0 0 0 0 0 0 0 0 0 0 0 0 0 0 0 0 0 0 0 0 0 0 0
0 0 0 0 0 0 0 0 0 0 0 0 0 0 0 0 0 0 0 0 0 0 0 0 0 0 0 0 0 0 0 0 0 0 0 0 0 0 0 0 0 0 0 0
0 0 0 0 0 0 0 0 0 0 0 0 0 0 0 0 0 0 0 0 0 0 0 0 0 0 0 0 0 0 0 0 0 0 0 0 0 0 0 0 0 0 0 0
0 0 0 0 0 0 0 0 0 0 0 0 0 0 0 0 0 0 0 0 0 0 0 0 0 0 0 0 0 0 0 0 0 0 0 0 0 0 0 0 -0 0 0 0
0 0 0 0 0 0 0 0 0 0 0 0 0 0 0 0 0 0 -0 0 0 0 0 0 0 0 0 0 0 0 0 0 0 0 0 0 0 0 0 0 0 0 0 0
0 0 0 0 0 0 0 0 0 0 0 0 0 0 0 0 0 0 -0 0 0 0 0 0 0 0 0 0 0 0 0 0 0 0 0 0 0 0 0 0 0 0 0 0
0 0 0 0 0 0 0 0 0 0 0 0 0 0 0 0 0 -0 0 0 0 0 0 0 0 0 0 0 0 0 0 0 0 0 0 0 0 0 0 0 0 0 0 0
0 0 0 0 0 0 0 0 0 0 0 0 0 0 0 0 0 0 0 0 0 0 0 0 0 0 0 0 0 0 0 0 0 0 0 0 0 0 0 0 0 0 0 0
0 0 0 0 0 0 0 0 0 0 0 0 0 0 0 0 0 0 0 0 0 0 0 0 0 0 0 0 0 0 0 0 0 0 0 0 0 0 -0 -0 0 0 0 0
-0 -0 0 0 0 0 0 0 0 0 0 0 0 0 0 0 0 0 0 0 0 0 0 0 0 0 0 0 0 0 0 0 0 0 0 0 0 -0 -0 -0 -0 -0 -0 -0
Wind_Speed_500mb
6 2 1 4 4 4 6 9 18 18 7 11 25 29 43 43 41 45 43 38 40 40 32 24 28 30 31 34 36 37 39 44 50 55 61 67 66 64 64 63 63 64 66 64
1 0 5 6 3 4 6 7 11 16 4 9 26 39 48 37 16 16 10 11 13 15 15 20 24 26 29 30 34 39 44 47 51 57 63 67 66 65 64 64 61 59 62 62
4 7 4 3 4 7 8 8 11 12 19 16 23 23 10 7 10 10 11 8 9 13 15 17 20 22 24 30 36 42 47 51 55 59 65 64 61 60 50 48 52 63 63 62
5 4 1 3 5 4 7 7 5 10 13 8 10 12 22 10 12 14 18 15 14 13 11 10 14 21 28 35 39 49 53 56 58 61 64 60 62 64 55 61 63 65 64 59
6 2 2 2 4 2 5 5 6 4 6 10 7 7 7 7 11 15 20 16 13 9 5 4 15 25 33 42 51 55 57 58 59 63 60 60 60 60 62 60 60 56 57 51
3 3 5 6 4 4 4 7 8 6 4 7 5 5 10 3 2 14 18 16 15 13 9 10 18 28 35 41 46 49 51 54 57 58 57 58 57 61 65 64 59 56 47 43
4 4 3 1 6 5 1 5 5 6 6 5 1 9 18 9 1 9 15 15 15 9 4 21 30 35 38 37 35 39 45 51 52 54 55 56 62 63 62 59 59 53 48 44
6 6 3 3 3 3 5 1 6 9 6 11 3 12 3 3 2 18 3 8 12 15 18 25 49 50 44 40 38 40 45 46 50 54 55 59 60 60 57 57 51 51 49 46
4 3 6 7 3 2 7 6 5 2 3 5 8 9 21 6 5 15 15 10 13 20 26 37 62 46 41 38 35 37 39 45 49 50 56 58 54 51 52 48 48 46 45 45
3 8 2 4 2 5 4 3 3 5 7 10 10 9 15 2 1 1 14 11 16 35 40 54 47 45 41 35 32 34 39 45 44 50 53 52 51 46 47 48 45 43 43 42
6 3 6 3 13 10 7 6 6 5 6 8 12 2 7 9 10 11 10 13 38 51 48 43 45 43 37 31 30 33 39 39 40 47 52 51 45 43 42 44 41 40 42 41
9 5 9 10 7 3 5 5 13 9 10 8 9 14 10 8 2 10 22 43 55 55 46 40 41 38 29 28 29 34 36 34 39 49 50 45 44 39 39 39 37 38 41 39
8 7 7 8 5 6 10 16 12 3 4 20 12 14 1 6 9 21 35 51 54 63 48 38 35 31 27 27 29 34 34 33 39 47 46 43 40 37 35 35 33 35 37 38
7 9 14 19 7 7 9 17 21 19 12 23 30 42 27 24 23 32 47 51 60 55 37 29 29 25 25 25 30 33 32 31 37 42 42 42 37 33 32 31 31 31 32 35
11 14 24 32 28 15 17 16 26 33 32 26 39 42 42 29 9 32 49 69 51 33 25 23 26 25 25 25 30 32 30 28 33 37 39 38 36 31 29 28 28 28 28 29
15 9 3 17 28 35 31 35 36 37 45 38 47 57 57 65 64 50 52 41 40 41 35 27 26 26 26 27 28 30 27 23 25 32 37 35 30 29 26 25 25 26 26 27
11 10 9 25 3 3 17 33 45 40 36 34 33 55 32 26 18 29 34 32 45 41 36 28 26 25 29 29 27 28 25 21 20 27 33 29 27 27 25 24 24 24 25 27
12 17 9 16 4 33 13 12 32 35 41 38 33 36 14 24 27 32 42 38 33 30 30 27 28 28 31 29 27 27 25 22 21 23 26 24 24 25 24 26 25 24 26 26
42 17 14 17 26 38 40 22 16 20 25 40 48 43 46 29 18 40 37 20 22 24 28 33 35 33 34 31 28 26 26 22 21 15 14 20 22 25 26 25 27 27 24 23
12 35 25 26 21 29 4 2 12 10 36 27 45 42 30 30 14 10 6 18 24 28 32 35 36 37 37 34 30 27 26 24 22 19 15 20 19 16 20 24 24 23 25 26
9 12 39 37 34 27 22 19 24 19 13 3 21 47 37 23 21 11 14 21 27 34 35 37 38 38 36 37 35 29 28 24 23 21 17 16 16 12 12 14 15 16 20 24
25 16 20 21 21 41 32 22 26 23 11 9 20 33 40 49 34 29 25 28 32 36 39 44 48 47 39 39 39 33 30 23 24 22 18 14 14 11 8 9 11 12 11 13
41 35 31 28 22 17 36 42 70 43 27 29 25 37 43 43 42 36 46 51 42 43 47 46 45 46 43 42 42 38 29 26 24 23 18 14 11 9 5 3 7 9 13 14
34 35 31 36 42 40 33 47 51 47 52 56 45 32 39 46 50 57 67 70 54 49 53 44 44 41 39 40 44 39 35 31 27 25 19 15 12 10 7 5 5 5 7 10
15 4 12 29 33 42 59 51 58 70 78 84 81 79 73 74 72 71 73 72 63 58 59 49 49 49 48 46 44 44 42 38 32 28 24 19 18 15 12 8 8 9 9 10
45 50 34 35 30 33 49 63 68 77 72 74 87 87 66 67 77 78 81 66 68 70 72 64 62 59 56 57 49 50 49 47 39 35 31 26 23 21 17 16 15 12 11 12
Wind_Direction_500mb
25 217 335 7 24 0 329 302 290 291 54 311 274 277 279 280 267 260 260 258 256 254 255 231 208 213 224 238 251 263 277 289 298 305 311 311 308 305 303 304 304 305 307 301
2 272 55 82 14 327 315 315 293 290 49 297 295 289 276 283 270 246 227 208 199 197 197 195 201 217 233 245 261 274 282 290 299 305 309 306 304 302 302 304 305 305 305 298
349 66 116 316 342 318 281 267 298 292 322 260 299 276 223 167 185 184 193 177 170 178 184 198 213 231 249 262 271 278 284 292 296 302 306 304 301 303 298 296 290 296 296 290
52 77 271 325 301 311 284 17 315 320 338 297 19 290 281 184 212 199 177 178 148 150 165 198 233 256 265 273 276 280 286 289 294 300 302 301 300 299 298 296 297 296 295 288
69 259 261 316 11 334 342 338 313 289 278 315 163 248 261 156 169 168 166 154 139 133 138 287 299 292 285 278 279 281 282 285 292 299 300 300 298 298 299 296 295 293 290 286
97 40 338 23 77 27 80 306 264 250 241 243 94 279 268 277 211 136 145 146 143 124 90 16 325 308 297 290 286 283 282 286 293 297 300 299 298 300 299 299 294 291 290 285
180 163 106 327 245 151 271 285 275 228 215 287 343 265 262 297 34 157 172 169 150 137 56 357 337 320 306 296 285 280 284 291 295 300 301 301 302 301 298 296 295 296 296 295
278 238 165 0 297 321 197 343 299 285 293 339 188 242 234 135 285 242 206 185 218 251 277 312 328 317 308 301 294 287 289 295 300 303 304 304 304 301 298 301 299 297 300 299
265 200 135 28 352 292 137 210 42 285 123 270 239 252 270 67 343 233 202 261 257 278 275 292 311 308 303 302 293 290 295 299 302 306 309 309 306 302 298 298 300 302 302 302
104 273 165 161 217 81 246 55 187 188 273 265 230 252 250 349 56 271 175 198 296 302 296 306 311 309 307 301 296 296 299 301 310 315 314 310 308 304 304 306 308 304 303 304
151 230 129 200 203 185 149 205 219 308 249 267 296 225 186 209 189 192 228 270 310 316 315 315 314 310 303 294 293 298 302 308 313 318 317 316 312 309 310 306 307 306 306 307
177 261 252 228 125 277 237 253 208 234 187 241 289 268 203 195 189 254 271 288 315 317 316 317 312 309 297 290 293 300 303 307 315 324 322 321 314 313 312 310 306 309 307 303
174 217 270 198 194 195 223 205 222 309 297 241 261 265 56 160 220 258 274 306 311 314 310 314 314 310 294 287 294 302 306 306 320 326 325 325 319 319 321 314 313 316 313 309
164 242 251 261 4 106 210 215 220 210 236 259 233 266 268 261 284 303 301 306 310 309 299 308 312 308 293 292 301 307 307 310 322 327 334 328 328 324 325 321 322 320 320 318
200 245 246 256 265 241 249 232 214 213 229 241 260 267 269 272 259 292 297 302 310 306 299 307 312 312 302 297 305 309 307 310 326 335 340 336 335 329 326 325 325 325 321 318
206 250 206 262 258 252 243 245 245 239 241 253 256 266 264 281 282 271 274 287 300 301 299 305 310 310 310 300 305 307 303 305 327 343 349 341 344 342 339 345 345 346 346 340
207 219 198 262 90 300 254 228 230 237 231 231 241 245 271 267 252 256 268 287 302 306 304 300 303 307 305 302 303 306 299 297 316 346 354 347 3 359 2 3 1 0 0 358
218 203 216 266 265 256 253 193 224 233 243 221 245 249 230 232 251 269 279 287 300 310 314 302 302 302 297 298 299 304 295 292 297 323 351 0 15 9 13 16 13 8 9 12
218 206 243 246 240 272 267 245 196 201 254 220 230 244 238 239 267 280 278 249 292 314 309 302 298 297 294 290 293 297 293 286 288 309 332 356 26 27 17 23 24 21 21 27
253 230 230 236 244 258 0 256 191 147 269 228 230 232 230 180 206 231 219 289 299 303 314 311 305 293 290 285 284 288 289 282 282 282 295 306 322 0 15 18 25 27 32 38
202 216 225 232 241 263 242 143 137 194 253 337 227 222 200 183 190 197 256 282 304 304 297 303 303 298 295 277 277 278 284 285 279 279 283 300 312 333 339 348 6 19 39 43
208 203 218 230 238 250 144 144 210 241 278 284 282 223 195 198 201 234 278 298 314 308 303 300 297 294 285 277 269 271 278 278 274 273 276 285 295 307 321 350 6 14 17 29
243 223 226 207 223 239 184 220 225 246 273 278 282 206 205 211 227 271 291 293 303 311 305 303 301 292 277 273 266 267 272 271 266 262 264 268 274 284 285 30 36 40 46 59
238 229 232 251 252 255 238 237 248 254 259 266 264 259 245 253 271 278 294 291 293 310 306 298 294 299 285 278 268 264 258 260 257 253 249 246 245 235 225 160 110 63 65 66
275 236 237 249 265 291 279 265 259 258 256 271 273 264 265 275 276 283 291 287 286 306 303 295 292 291 286 282 273 257 249 249 247 242 235 233 223 213 194 183 148 126 111 96
252 248 245 250 238 239 263 266 260 253 260 270 279 275 267 276 282 289 289 276 286 299 300 290 289 286 282 276 272 256 242 239 239 232 226 220 222 206 196 184 171 155 125 110
Wind_Speed_850mb
6 2 1 4 4 4 6 9 18 18 7 11 25 29 43 43 41 45 43 38 40 40 32 24 28 30 31 34 36 37 39 44 50 55 61 67 66 64 64 63 63 64 66 64
1 0 5 6 3 4 6 7 11 16 4 9 26 39 48 37 16 16 10 11 13 15 15 20 24 26 29 30 34 39 44 47 51 57 63 67 66 65 64 64 61 59 62 62
4 7 4 3 4 7 8 8 11 12 19 16 23 23 10 7 10 10 11 8 9 13 15 17 20 22 24 30 36 42 47 51 55 59 65 64 61 60 50 48 52 63 63 62
5 4 1 3 5 4 7 7 5 10 13 8 10 12 22 10 12 14 18 15 14 13 11 10 14 21 28 35 39 49 53 56 58 61 64 60 62 64 55 61 63 65 64 59
6 2 2 2 4 2 5 5 6 4 6 10 7 7 7 7 11 15 20 16 13 9 5 4 15 25 33 42 51 55 57 58 59 63 60 60 60 60 62 60 60 56 57 51
3 3 5 6 4 4 4 7 8 6 4 7 5 5 10 3 2 14 18 16 15 13 9 10 18 28 35 41 46 49 51 54 57 58 57 58 57 61 65 64 59 56 47 43
4 4 3 1 6 5 1 5 5 6 6 5 1 9 18 9 1 9 15 15 15 9 4 21 30 35 38 37 35 39 45 51 52 54 55 56 62 63 62 59 59 53 48 44
6 6 3 3 3 3 5 1 6 9 6 11 3 12 3 3 2 18 3 8 12 15 18 25 49 50 44 40 38 40 45 46 50 54 55 59 60 60 57 57 51 51 49 46
4 3 6 7 3 2 7 6 5 2 3 5 8 9 21 6 5 15 15 10 13 20 26 37 62 46 41 38 35 37 39 45 49 50 56 58 54 51 52 48 48 46 45 45
3 8 2 4 2 5 4 3 3 5 7 10 10 9 15 2 1 1 14 11 16 35 40 54 47 45 41 35 32 34 39 45 44 50 53 52 51 46 47 48 45 43 43 42
6 3 6 3 13 10 7 6 6 5 6 8 12 2 7 9 10 11 10 13 38 51 48 43 45 43 37 31 30 33 39 39 40 47 52 51 45 43 42 44 41 40 42 41
9 5 9 10 7 3 5 5 13 9 10 8 9 14 10 8 2 10 22 43 55 55 46 40 41 38 29 28 29 34 36 34 39 49 50 45 44 39 39 39 37 38 41 39
8 7 7 8 5 6 10 16 12 3 4 20 12 14 1 6 9 21 35 51 54 63 48 38 35 31 27 27 29 34 34 33 39 47 46 43 40 37 35 35 33 35 37 38
7 9 14 19 7 7 9 17 21 19 12 23 30 42 27 24 23 32 47 51 60 55 37 29 29 25 25 25 30 33 32 31 37 42 42 42 37 33 32 31 31 31 32 35
11 14 24 32 28 15 17 16 26 33 32 26 39 42 42 29 9 32 49 69 51 33 25 23 26 25 25 25 30 32 30 28 33 37 39 38 36 31 29 28 28 28 28 29
15 9 3 17 28 35 31 35 36 37 45 38 47 57 57 65 64 50 52 41 40 41 35 27 26 26 26 27 28 30 27 23 25 32 37 35 30 29 26 25 25 26 26 27
11 10 9 25 3 3 17 33 45 40 36 34 33 55 32 26 18 29 34 32 45 41 36 28 26 25 29 29 27 28 25 21 20 27 33 29 27 27 25 24 24 24 25 27
12 17 9 16 4 33 13 12 32 35 41 38 33 36 14 24 27 32 42 38 33 30 30 27 28 28 31 29 27 27 25 22 21 23 26 24 24 25 24 26 25 24 26 26
42 17 14 17 26 38 40 22 16 20 25 40 48 43 46 29 18 40 37 20 22 24 28 33 35 33 34 31 28 26 26 22 21 15 14 20 22 25 26 25 27 27 24 23
12 35 25 26 21 29 4 2 12 10 36 27 45 42 30 30 14 10 6 18 24 28 32 35 36 37 37 34 30 27 26 24 22 19 15 20 19 16 20 24 24 23 25 26
9 12 39 37 34 27 22 19 24 19 13 3 21 47 37 23 21 11 14 21 27 34 35 37 38 38 36 37 35 29 28 24 23 21 17 16 16 12 12 14 15 16 20 24
25 16 20 21 21 41 32 22 26 23 11 9 20 33 40 49 34 29 25 28 32 36 39 44 48 47 39 39 39 33 30 23 24 22 18 14 14 11 8 9 11 12 11 13
41 35 31 28 22 17 36 42 70 43 27 29 25 37 43 43 42 36 46 51 42 43 47 46 45 46 43 42 42 38 29 26 24 23 18 14 11 9 5 3 7 9 13 14
34 35 31 36 42 40 33 47 51 47 52 56 45 32 39 46 50 57 67 70 54 49 53 44 44 41 39 40 44 39 35 31 27 25 19 15 12 10 7 5 5 5 7 10
15 4 12 29 33 42 59 51 58 70 78 84 81 79 73 74 72 71 73 72 63 58 59 49 49 49 48 46 44 44 42 38 32 28 24 19 18 15 12 8 8 9 9 10
45 50 34 35 30 33 49 63 68 77 72 74 87 87 66 67 77 78 81 66 68 70 72 64 62 59 56 57 49 50 49 47 39 35 31 26 23 21 17 16 15 12 11 12
Wind_Direction_850mb
25 217 335 7 24 0 329 302 290 291 54 311 274 277 279 280 267 260 260 258 256 254 255 231 208 213 224 238 251 263 277 289 298 305 311 311 308 305 303 304 304 305 307 301
2 272 55 82 14 327 315 315 293 290 49 297 295 289 276 283 270 246 227 208 199 197 197 195 201 217 233 245 261 274 282 290 299 305 309 306 304 302 302 304 305 305 305 298
349 66 116 316 342 318 281 267 298 292 322 260 299 276 223 167 185 184 193 177 170 178 184 198 213 231 249 262 271 278 284 292 296 302 306 304 301 303 298 296 290 296 296 290
52 77 271 325 301 311 284 17 315 320 338 297 19 290 281 184 212 199 177 178 148 150 165 198 233 256 265 273 276 280 286 289 294 300 302 301 300 299 298 296 297 296 295 288
69 259 261 316 11 334 342 338 313 289 278 315 163 248 261 156 169 168 166 154 139 133 138 287 299 292 285 278 279 281 282 285 292 299 300 300 298 298 299 296 295 293 290 286
97 40 338 23 77 27 80 306 264 250 241 243 94 279 268 277 211 136 145 146 143 124 90 16 325 308 297 290 286 283 282 286 293 297 300 299 298 300 299 299 294 291 290 285
180 163 106 327 245 151 271 285 275 228 215 287 343 265 262 297 34 157 172 169 150 137 56 357 337 320 306 296 285 280 284 291 295 300 301 301 302 301 298 296 295 296 296 295
278 238 165 0 297 321 197 343 299 285 293 339 188 242 234 135 285 242 206 185 218 251 277 312 328 317 308 301 294 287 289 295 300 303 304 304 304 301 298 301 299 297 300 299
265 200 135 28 352 292 137 210 42 285 123 270 239 252 270 67 343 233 202 261 257 278 275 292 311 308 303 302 293 290 295 299 302 306 309 309 306 302 298 298 300 302 302 302
104 273 165 161 217 81 246 55 187 188 273 265 230 252 250 349 56 271 175 198 296 302 296 306 311 309 307 301 296 296 299 301 310 315 314 310 308 304 304 306 308 304 303 304
151 230 129 200 203 185 149 205 219 308 249 267 296 225 186 209 189 192 228 270 310 316 315 315 314 310 303 294 293 298 302 308 313 318 317 316 312 309 310 306 307 306 306 307
177 261 252 228 125 277 237 253 208 234 187 241 289 268 203 195 189 254 271 288 315 317 316 317 312 309 297 290 293 300 303 307 315 324 322 321 314 313 312 310 306 309 307 303
174 217 270 198 194 195 223 205 222 309 297 241 261 265 56 160 220 258 274 306 311 314 310 314 314 310 294 287 294 302 306 306 320 326 325 325 319 319 321 314 313 316 313 309
164 242 251 261 4 106 210 215 220 210 236 259 233 266 268 261 284 303 301 306 310 309 299 308 312 308 293 292 301 307 307 310 322 327 334 328 328 324 325 321 322 320 320 318
200 245 246 256 265 241 249 232 214 213 229 241 260 267 269 272 259 292 297 302 310 306 299 307 312 312 302 297 305 309 307 310 326 335 340 336 335 329 326 325 325 325 321 318
206 250 206 262 258 252 243 245 245 239 241 253 256 266 264 281 282 271 274 287 300 301 299 305 310 310 310 300 305 307 303 305 327 343 349 341 344 342 339 345 345 346 346 340
207 219 198 262 90 300 254 228 230 237 231 231 241 245 271 267 252 256 268 287 302 306 304 300 303 307 305 302 303 306 299 297 316 346 354 347 3 359 2 3 1 0 0 358
218 203 216 266 265 256 253 193 224 233 243 221 245 249 230 232 251 269 279 287 300 310 314 302 302 302 297 298 299 304 295 292 297 323 351 0 15 9 13 16 13 8 9 12
218 206 243 246 240 272 267 245 196 201 254 220 230 244 238 239 267 280 278 249 292 314 309 302 298 297 294 290 293 297 293 286 288 309 332 356 26 27 17 23 24 21 21 27
253 230 230 236 244 258 0 256 191 147 269 228 230 232 230 180 206 231 219 289 299 303 314 311 305 293 290 285 284 288 289 282 282 282 295 306 322 0 15 18 25 27 32 38
202 216 225 232 241 263 242 143 137 194 253 337 227 222 200 183 190 197 256 282 304 304 297 303 303 298 295 277 277 278 284 285 279 279 283 300 312 333 339 348 6 19 39 43
208 203 218 230 238 250 144 144 210 241 278 284 282 223 195 198 201 234 278 298 314 308 303 300 297 294 285 277 269 271 278 278 274 273 276 285 295 307 321 350 6 14 17 29
243 223 226 207 223 239 184 220 225 246 273 278 282 206 205 211 227 271 291 293 303 311 305 303 301 292 277 273 266 267 272 271 266 262 264 268 274 284 285 30 36 40 46 59
238 229 232 251 252 255 238 237 248 254 259 266 264 259 245 253 271 278 294 291 293 310 306 298 294 299 285 278 268 264 258 260 257 253 249 246 245 235 225 160 110 63 65 66
275 236 237 249 265 291 279 265 259 258 256 271 273 264 265 275 276 283 291 287 286 306 303 295 292 291 286 282 273 257 249 249 247 242 235 233 223 213 194 183 148 126 111 96
252 248 245 250 238 239 263 266 260 253 260 270 279 275 267 276 282 289 289 276 286 299 300 290 289 286 282 276 272 256 242 239 239 232 226 220 222 206 196 184 171 155 125 110